Regional Weather Roundup
Issued by NWS

Home | Current Version | Previous Version | Graphics & Text | Print | Product List | Glossary On
Versions: 1 2 3 4 5 6 7 8 9 10 11 12 13 14 15 16 17 18 19 20 21 22 23 24 25 26 27 28 29 30 31 32 33 34 35 36 37 38 39 40 41 42 43 44 45 46 47 48 49 50
000
ASUS43 KLOT 260409
RWRIL

ILLINOIS REGIONAL WEATHER ROUNDUP
NATIONAL WEATHER SERVICE CHICAGO/ROMEOVILLE IL
1100 PM CDT THU AUG 25 2016

NOTE: "FAIR" INDICATES FEW OR NO CLOUDS BELOW 12,000 FEET WITH NO
SIGNIFICANT WEATHER AND/OR OBSTRUCTIONS TO VISIBILITY.

* THESE STATIONS ARE NOT UNDER NWS QUALITY CONTROL. THEY ALSO MAY NOT
  REPORT WEATHER SUCH AS PRECIPITATION OR FOG.

ILZ001-002-007-009-015-016-024-260500-
NORTHWEST ILLINOIS

CITY           SKY/WX    TMP DP  RH WIND       PRES   REMARKS
MOLINE         CLOUDY    67  64  90 CALM      30.10S
STERLING*      CLOUDY    66  65  96 CALM      30.11R
SAVANNA*       CLOUDY    65  64  97 CALM      30.10S
$$

ILZ003-004-008-010-011-017-018-260500-
NORTH CENTRAL ILLINOIS

CITY           SKY/WX    TMP DP  RH WIND       PRES   REMARKS
ROCKFORD       MOCLDY    69  65  86 CALM      30.10R
FREEPORT*      PTCLDY    65  62  90 W3        30.13R
ROCHELLE*      CLOUDY    62  62  99 CALM      30.11R
DE KALB*       CLEAR     65  64  94 W6        30.10S
$$

ILZ005-006-012>014-019>023-260500-
NORTHEAST ILLINOIS

CITY           SKY/WX    TMP DP  RH WIND       PRES   REMARKS
CHICAGO-OHARE  MOCLDY    69  64  84 W5        30.08R
CHICAGO-MIDWAY CLOUDY    73  63  70 NW5       30.07R
AURORA         CLOUDY    65  62  90 NW3       30.09R
LANSING*       MOCLDY    71  70  99 CALM      30.08S
JOLIET*        MOCLDY    69  67  94 CALM      30.09S
WAUKEGAN       CLEAR     67  64  90 CALM      30.07R
DUPAGE AIRPORT CLOUDY    66  61  84 CALM      30.08R
KANKAKEE*      MOCLDY    71  68  92 W3        30.09S
WHEELING       CLEAR     69  64  84 CALM      30.08S
MORRIS*        MOCLDY    67  65  94 CALM      30.08R
ROMEOVILLE*    MOCLDY    67  67 100 NW3       30.09S
NORTHERLY ISL    N/A     70  66  87 W2          N/A
$$

LMZ740>746-260500-
SOUTHERN LAKE MICHIGAN

STATION/POSITION SKY/WX   TEMP    WIND        PRES    VSBY  WAVE
                          AIR SEA DIR/SP/G                  HT/PER
                          (F)     (DEG/KT/KT) (MB)    (MI)  (FT/S)
SOUTHERN BUOY              74 75  270/  6/  6 1017.2R         1
WILMETTE HARBOR            70 69  270/  4/  6   N/A           0
HARRISON CRIB              76     290/  4/  4   N/A
BURNHAM HARBOR             70     290/  2/  3   N/A
CALUMET HARBOR             72      CALM  /  1 1017.5F
BURNS HARBOR               73      70/  2/  4 1018.6R
MICHIGAN CITY              74     110/  3/  3   N/A
MICHIGAN CITY 6N           74 75  110/  2/  2   N/A           1/ 4
ST. JOSEPH                 74 75  230/  2/  4 1017.9R         1/ 3
$$

ILZ025>027-034>036-040-047-049-050-058-095>099-260500-
WEST-CENTRAL ILLINOIS

CITY           SKY/WX    TMP DP  RH WIND       PRES   REMARKS
QUINCY         CLOUDY    72  67  84 NE8       30.09R
GALESBURG*     MOCLDY    67  65  96 CALM      30.10S
MACOMB*        CLOUDY    69  67  93 N5        30.11S
JACKSONVILLE*  CLOUDY    74  73  93 N5        30.08R
PITTSFIELD*    CLOUDY    75  73  93 NE7       30.09R
$$

ILZ028>032-037-038-041>044-048-051>054-059>061-260500-
CENTRAL ILLINOIS

CITY           SKY/WX    TMP DP  RH WIND       PRES   REMARKS
PONTIAC        CLOUDY    71  70  99 CALM      30.10S
BLOOMINGTON    CLOUDY    73  68  84 N9        30.10S
DECATUR        MOCLDY    76  72  87 N6        30.07S
PEORIA         MOCLDY    72  70  93 CALM      30.09S
LACON*         MOCLDY    69  66  91 CALM      30.08S
LINCOLN*       CLOUDY    74  73  94 N3        30.07S
SPRINGFIELD    CLOUDY    77  72  84 N5        30.07S
TAYLORVILLE    PTCLDY    75  73  91 CALM      30.07R
$$

ILZ033-039-045-046-055>057-062-063-260500-
EAST-CENTRAL ILLINOIS

CITY           SKY/WX    TMP DP  RH WIND       PRES   REMARKS
CHAMPAIGN      MOCLDY    76  72  87 N7        30.08S
RANTOUL*       PTCLDY    76  72  87 N5        30.08S
MATTOON        MOCLDY    77  74  90 NE3       30.06R
PARIS*         MOCLDY    74  74  99 CALM      30.08S
$$

ILZ079-100>102-260500-
SOUTHWEST ILLINOIS

CITY           SKY/WX    TMP DP  RH WIND       PRES   REMARKS
ALTON          MOCLDY    76  74  91 CALM      30.05S
BELLEVILLE     PTCLDY    78  76  95 S5        30.04S HX  80
CAHOKIA*       CLEAR     78  73  84 CALM      30.04S HX  81
SPARTA*        CLEAR     80  73  79 S6        30.08R HX  84
$$

ILZ064>066-069>071-074>076-080>082-084>086-088>090-092>094-260500-
SOUTH-CENTRAL ILLINOIS

CITY           SKY/WX    TMP DP  RH WIND       PRES   REMARKS
CARBONDALE     CLEAR     74  71  91 S7        30.06S
CAIRO*         CLEAR     74  73  98 CALM      30.07S
EFFINGHAM*     PTCLDY    79  76  92 S5        30.07S HX  83
MARION         CLEAR     77  73  88 CALM      30.07S
MT. VERNON     CLEAR     73  66  78 CALM      30.07S
CENTRALIA*     CLEAR     77  74  91 S5        30.06S
SALEM*         CLEAR     79  73  82 S3        30.07S HX  83
$$

ILZ067-068-072-073-078-083-087-091-260500-
SOUTHEAST ILLINOIS

CITY           SKY/WX    TMP DP  RH WIND       PRES   REMARKS
LAWRENCEVILLE  PTCLDY    76  74  93 SW6       30.07R
FLORA*         PTCLDY    76  74  93 CALM      30.06F
FAIRFIELD*     CLEAR     74  74  97 CALM      30.06S
HARRISBURG*    CLEAR     75  74  96 E3        30.07S
ROBINSON*      CLEAR     72  71  98 CALM      30.07R
CARMI*         PTCLDY    74  74  99 SE3       30.06S
$$

ABBREVIATIONS USED IN REMARKS
   TC - TEMPERATURE IN CELSIUS
  WCI - WIND CHILL INDEX
   HX - HEAT INDEX
  VSB - VISIBILITY
$$





USA.gov is the U.S. government's official web portal to all federal, state and local government web resources and services.